CXK69 KDEN-KHDN

Flight info

Callsign CXK69
Flight time 0h 39m
Altitude 18000
Route ROCKI7 RLG
Aircraft B60T/L-SDFGRY/C

Departure

Time 2026-05-08 04:54
Airport Denver International Airport (KDEN)

Arrival

Time 2026-05-08 05:34
Airport Yampa Valley Airport (KHDN)
Time Latitude Longitude Altitude Speed Heading
2026-05-08 04:31 39.83937 -104.66494 5409 ft 0 kts 360°
2026-05-08 04:45 39.83945 -104.66491 5407 ft 0 kts 28°
2026-05-08 04:46 39.83948 -104.66489 5408 ft 3 kts 30°
2026-05-08 04:46 39.83971 -104.66452 5408 ft 0 kts 73°
2026-05-08 04:46 39.83974 -104.66438 5411 ft 0 kts 76°
2026-05-08 04:47 39.83983 -104.66401 5408 ft 10 kts 61°
2026-05-08 04:47 39.84016 -104.66333 5415 ft 0 kts 73°
2026-05-08 04:50 39.84014 -104.66283 5415 ft 10 kts 118°
2026-05-08 04:50 39.83969 -104.66256 5417 ft 9 kts 172°
2026-05-08 04:50 39.83907 -104.66256 5417 ft 11 kts 179°
2026-05-08 04:51 39.83804 -104.66258 5419 ft 15 kts 180°
2026-05-08 04:51 39.83703 -104.66260 5420 ft 15 kts 185°
2026-05-08 04:51 39.83581 -104.66258 5421 ft 19 kts 179°
2026-05-08 04:51 39.83442 -104.66261 5424 ft 21 kts 182°
2026-05-08 04:52 39.83329 -104.66262 5426 ft 14 kts 182°
2026-05-08 04:52 39.83215 -104.66263 5427 ft 19 kts 180°
2026-05-08 04:52 39.83134 -104.66265 5429 ft 9 kts 180°
2026-05-08 04:52 39.83047 -104.66265 5430 ft 19 kts 179°
2026-05-08 04:53 39.82875 -104.66265 5432 ft 17 kts 173°
2026-05-08 04:53 39.82846 -104.66229 5433 ft 0 kts 108°
2026-05-08 04:53 39.82844 -104.66210 5433 ft 12 kts 92°
2026-05-08 04:53 39.82917 -104.66048 5435 ft 32 kts 358°
2026-05-08 04:54 39.83276 -104.66050 5430 ft 79 kts
2026-05-08 04:54 39.83982 -104.66044 5452 ft 116 kts
2026-05-08 04:54 39.84828 -104.66050 5674 ft 125 kts
2026-05-08 04:54 39.85643 -104.66316 6091 ft 122 kts 326°
2026-05-08 04:55 39.86161 -104.67127 6552 ft 109 kts 298°
2026-05-08 04:55 39.86521 -104.67969 6878 ft 110 kts 296°
2026-05-08 04:55 39.86884 -104.68847 7183 ft 111 kts 292°
2026-05-08 04:55 39.87023 -104.69843 7411 ft 119 kts 268°
2026-05-08 04:56 39.86974 -104.70979 7681 ft 132 kts 268°
2026-05-08 04:56 39.86927 -104.72249 7929 ft 150 kts 268°
2026-05-08 04:56 39.86860 -104.73665 8243 ft 162 kts 267°
2026-05-08 04:56 39.86789 -104.75156 8624 ft 167 kts 268°
2026-05-08 04:57 39.86712 -104.76683 9036 ft 171 kts 268°
2026-05-08 04:57 39.86631 -104.78237 9460 ft 173 kts 268°
2026-05-08 04:57 39.86545 -104.79807 9891 ft 174 kts 268°
2026-05-08 04:57 39.86452 -104.81442 10000 ft 190 kts 268°
2026-05-08 04:58 39.86353 -104.83218 9998 ft 202 kts 268°
2026-05-08 04:58 39.86253 -104.85076 9992 ft 209 kts 268°
2026-05-08 04:58 39.86152 -104.86974 9986 ft 211 kts 268°
2026-05-08 04:58 39.86053 -104.88809 10405 ft 193 kts 268°
2026-05-08 04:59 39.85951 -104.90494 10926 ft 182 kts 268°
2026-05-08 04:59 39.85847 -104.92116 11439 ft 177 kts 268°
2026-05-08 04:59 39.85727 -104.93695 11951 ft 174 kts 268°
2026-05-08 04:59 39.85575 -104.95242 12464 ft 171 kts 268°
2026-05-08 05:00 39.85414 -104.96764 12966 ft 169 kts 268°
2026-05-08 05:00 39.85249 -104.98273 13473 ft 168 kts 268°
2026-05-08 05:00 39.85075 -104.99767 13961 ft 167 kts 268°
2026-05-08 05:00 39.84897 -105.01262 14445 ft 167 kts 268°
2026-05-08 05:01 39.84720 -105.02764 14880 ft 169 kts 268°
2026-05-08 05:01 39.84545 -105.04275 15329 ft 169 kts 268°
2026-05-08 05:01 39.84373 -105.05793 15777 ft 169 kts 269°
2026-05-08 05:01 39.84347 -105.07308 16222 ft 167 kts 277°
2026-05-08 05:02 39.84397 -105.08817 16665 ft 167 kts 277°
2026-05-08 05:02 39.84453 -105.10326 17107 ft 167 kts 278°
2026-05-08 05:02 39.84511 -105.11837 17552 ft 167 kts 278°
2026-05-08 05:02 39.84571 -105.13349 17992 ft 169 kts 278°
2026-05-08 05:03 39.84685 -105.14956 18034 ft 187 kts 284°
2026-05-08 05:03 39.84981 -105.16672 18033 ft 201 kts 285°
2026-05-08 05:03 39.85249 -105.18505 18032 ft 211 kts 283°
2026-05-08 05:03 39.85483 -105.20415 18029 ft 217 kts 282°
2026-05-08 05:04 39.85718 -105.22350 18027 ft 221 kts 282°
2026-05-08 05:04 39.85966 -105.24337 18021 ft 224 kts 282°
2026-05-08 05:04 39.86218 -105.26349 18013 ft 226 kts 282°
2026-05-08 05:04 39.86469 -105.28375 18004 ft 227 kts 282°
2026-05-08 05:05 39.86721 -105.30394 18051 ft 226 kts 282°
2026-05-08 05:05 39.86972 -105.32419 18037 ft 227 kts 282°
2026-05-08 05:05 39.87222 -105.34441 18029 ft 226 kts 282°
2026-05-08 05:05 39.87470 -105.36454 18038 ft 226 kts 282°
2026-05-08 05:06 39.87721 -105.38481 18030 ft 227 kts 282°
2026-05-08 05:06 39.87973 -105.40510 18029 ft 227 kts 282°
2026-05-08 05:06 39.88222 -105.42540 18023 ft 227 kts 282°
2026-05-08 05:06 39.88477 -105.44573 18016 ft 229 kts 282°
2026-05-08 05:07 39.88726 -105.46617 18022 ft 229 kts 282°
2026-05-08 05:07 39.88972 -105.48663 18019 ft 228 kts 282°
2026-05-08 05:07 39.89228 -105.50701 18032 ft 228 kts 283°
2026-05-08 05:07 39.89485 -105.52736 18024 ft 228 kts 283°
2026-05-08 05:08 39.89733 -105.54772 18014 ft 228 kts 282°
2026-05-08 05:08 39.89978 -105.56806 18010 ft 227 kts 282°
2026-05-08 05:08 39.90226 -105.58833 18011 ft 227 kts 282°
2026-05-08 05:08 39.90473 -105.60861 18003 ft 226 kts 282°
2026-05-08 05:09 39.90716 -105.62874 17999 ft 224 kts 282°
2026-05-08 05:09 39.90956 -105.64864 18025 ft 220 kts 282°
2026-05-08 05:09 39.91192 -105.66822 18022 ft 218 kts 282°
2026-05-08 05:09 39.91425 -105.68745 18017 ft 213 kts 282°
2026-05-08 05:10 39.91657 -105.70660 18019 ft 215 kts 282°
2026-05-08 05:10 39.92119 -105.74513 18019 ft 215 kts 282°
2026-05-08 05:10 39.92352 -105.76437 18015 ft 215 kts 281°
2026-05-08 05:11 39.92579 -105.78358 18016 ft 215 kts 281°
2026-05-08 05:11 39.92806 -105.80248 18040 ft 213 kts 281°
2026-05-08 05:11 39.93034 -105.82152 18035 ft 212 kts 283°
2026-05-08 05:11 39.93519 -105.83947 18040 ft 210 kts 296°
2026-05-08 05:12 39.94167 -105.85645 18036 ft 209 kts 295°
2026-05-08 05:12 39.94747 -105.87380 18037 ft 209 kts 293°
2026-05-08 05:12 39.95286 -105.89126 18036 ft 207 kts 292°
2026-05-08 05:12 39.95823 -105.90860 18033 ft 206 kts 293°
2026-05-08 05:13 39.96361 -105.92574 18039 ft 202 kts 293°
2026-05-08 05:13 39.96899 -105.94275 18053 ft 205 kts 293°
2026-05-08 05:13 39.97436 -105.95991 18048 ft 205 kts 293°
2026-05-08 05:13 39.97970 -105.97695 18059 ft 203 kts 293°
2026-05-08 05:14 39.98503 -105.99401 18052 ft 203 kts 293°
2026-05-08 05:14 39.99032 -106.01094 18047 ft 202 kts 293°
2026-05-08 05:14 39.99570 -106.02798 18046 ft 204 kts 294°
2026-05-08 05:14 40.00112 -106.04514 18053 ft 205 kts 293°
2026-05-08 05:15 40.00646 -106.06241 18065 ft 206 kts 292°
2026-05-08 05:15 40.01185 -106.07976 18059 ft 207 kts 292°
2026-05-08 05:15 40.01731 -106.09716 18055 ft 208 kts 292°
2026-05-08 05:15 40.02275 -106.11460 18060 ft 207 kts 292°
2026-05-08 05:16 40.02817 -106.13202 18052 ft 207 kts 292°
2026-05-08 05:16 40.03358 -106.14937 18053 ft 206 kts 292°
2026-05-08 05:16 40.03898 -106.16668 18052 ft 206 kts 292°
2026-05-08 05:16 40.04436 -106.18397 18046 ft 205 kts 292°
2026-05-08 05:17 40.04970 -106.20117 18034 ft 204 kts 292°
2026-05-08 05:17 40.05500 -106.21826 18042 ft 203 kts 292°
2026-05-08 05:17 40.06032 -106.23532 18040 ft 203 kts 292°
2026-05-08 05:17 40.06561 -106.25237 18037 ft 202 kts 292°
2026-05-08 05:18 40.07080 -106.26912 18041 ft 202 kts 292°
2026-05-08 05:18 40.07607 -106.28608 18041 ft 202 kts 292°
2026-05-08 05:18 40.08136 -106.30308 18042 ft 202 kts 292°
2026-05-08 05:18 40.08660 -106.32008 18041 ft 202 kts 292°
2026-05-08 05:19 40.09184 -106.33704 18044 ft 201 kts 292°
2026-05-08 05:19 40.09709 -106.35401 18027 ft 201 kts 292°
2026-05-08 05:19 40.10234 -106.37092 18042 ft 201 kts 292°
2026-05-08 05:19 40.10754 -106.38786 18025 ft 200 kts 292°
2026-05-08 05:20 40.11270 -106.40458 18049 ft 198 kts 292°
2026-05-08 05:20 40.11787 -106.42134 18040 ft 200 kts 292°
2026-05-08 05:20 40.12308 -106.43823 18040 ft 201 kts 292°
2026-05-08 05:20 40.12829 -106.45513 18050 ft 201 kts 292°
2026-05-08 05:21 40.13352 -106.47214 18045 ft 203 kts 292°
2026-05-08 05:21 40.13880 -106.48924 18044 ft 203 kts 292°
2026-05-08 05:21 40.14405 -106.50634 18042 ft 203 kts 292°
2026-05-08 05:21 40.14929 -106.52341 18045 ft 203 kts 292°
2026-05-08 05:22 40.15455 -106.54051 18046 ft 202 kts 292°
2026-05-08 05:22 40.15979 -106.55759 18045 ft 203 kts 292°
2026-05-08 05:22 40.16504 -106.57471 18044 ft 203 kts 292°
2026-05-08 05:22 40.17027 -106.59179 18046 ft 202 kts 292°
2026-05-08 05:23 40.17552 -106.60889 18042 ft 203 kts 292°
2026-05-08 05:23 40.18075 -106.62601 18044 ft 203 kts 292°
2026-05-08 05:23 40.18600 -106.64317 18046 ft 203 kts 292°
2026-05-08 05:23 40.19127 -106.66038 18040 ft 204 kts 292°
2026-05-08 05:24 40.19654 -106.67761 18048 ft 204 kts 292°
2026-05-08 05:24 40.20181 -106.69489 18047 ft 205 kts 292°
2026-05-08 05:24 40.20712 -106.71218 18039 ft 205 kts 292°
2026-05-08 05:24 40.21239 -106.72953 18046 ft 206 kts 291°
2026-05-08 05:25 40.21768 -106.74697 18057 ft 207 kts 291°
2026-05-08 05:25 40.22306 -106.76464 17751 ft 217 kts 292°
2026-05-08 05:25 40.22879 -106.78340 17175 ft 228 kts 292°
2026-05-08 05:25 40.23410 -106.80085 16483 ft 184 kts 292°
2026-05-08 05:26 40.23855 -106.81560 15779 ft 169 kts 292°
2026-05-08 05:26 40.24288 -106.82987 15055 ft 169 kts 293°
2026-05-08 05:26 40.24724 -106.84422 14349 ft 172 kts 293°
2026-05-08 05:26 40.25187 -106.85936 13673 ft 184 kts 293°
2026-05-08 05:27 40.25668 -106.87518 12993 ft 188 kts 293°
2026-05-08 05:27 40.26126 -106.89035 12913 ft 175 kts 293°
2026-05-08 05:27 40.26674 -106.90427 12905 ft 171 kts 310°
2026-05-08 05:27 40.27504 -106.91556 12758 ft 178 kts 311°
2026-05-08 05:28 40.28385 -106.92782 12515 ft 190 kts 311°
2026-05-08 05:28 40.29315 -106.94081 12197 ft 203 kts 311°
2026-05-08 05:28 40.30313 -106.95472 11805 ft 215 kts 311°
2026-05-08 05:28 40.31304 -106.96834 11496 ft 190 kts 311°
2026-05-08 05:29 40.32168 -106.98065 11057 ft 181 kts 311°
2026-05-08 05:29 40.33003 -106.99243 10929 ft 175 kts 311°
2026-05-08 05:29 40.33557 -107.00016 10951 ft 177 kts 311°
2026-05-08 05:29 40.34434 -107.01239 10882 ft 192 kts 311°
2026-05-08 05:30 40.35392 -107.02524 10686 ft 202 kts 311°
2026-05-08 05:30 40.36344 -107.03917 10407 ft 206 kts 310°
2026-05-08 05:30 40.37303 -107.05285 10033 ft 201 kts 312°
2026-05-08 05:30 40.38236 -107.06571 9965 ft 188 kts 313°
2026-05-08 05:31 40.39139 -107.07813 9608 ft 191 kts 313°
2026-05-08 05:31 40.40074 -107.09113 8988 ft 200 kts 312°
2026-05-08 05:31 40.41029 -107.10440 8595 ft 195 kts 312°
2026-05-08 05:31 40.41928 -107.11702 8573 ft 187 kts 311°
2026-05-08 05:32 40.42826 -107.12960 8331 ft 190 kts 311°
2026-05-08 05:32 40.43741 -107.14226 8066 ft 193 kts 311°
2026-05-08 05:32 40.44678 -107.15527 7764 ft 197 kts 310°
2026-05-08 05:32 40.45610 -107.16854 7429 ft 198 kts 311°
2026-05-08 05:33 40.46473 -107.18064 7109 ft 148 kts 312°
2026-05-08 05:33 40.47053 -107.18941 6847 ft 116 kts 304°
2026-05-08 05:33 40.47453 -107.19812 6721 ft 109 kts 295°
2026-05-08 05:33 40.47741 -107.20642 6611 ft 83 kts 293°
2026-05-08 05:34 40.47892 -107.21092 6614 ft 33 kts 294°
2026-05-08 05:34 40.47949 -107.21259 6616 ft 14 kts 294°
2026-05-08 05:34 40.47994 -107.21354 6614 ft 10 kts 353°
2026-05-08 05:34 40.48051 -107.21328 6613 ft 8 kts 23°
2026-05-08 05:35 40.48068 -107.21268 6613 ft 8 kts 99°
2026-05-08 05:35 40.48038 -107.21169 6614 ft 17 kts 114°
2026-05-08 05:35 40.47970 -107.20966 6614 ft 31 kts 113°
2026-05-08 05:35 40.47876 -107.20687 6612 ft 26 kts 111°
2026-05-08 05:36 40.47854 -107.20610 6610 ft 0 kts 107°
2026-05-08 05:36 40.47911 -107.20563 6607 ft 20 kts 28°
2026-05-08 05:36 40.47985 -107.20476 6607 ft 8 kts 67°
2026-05-08 05:36 40.47983 -107.20454 6607 ft 0 kts 108°